SCP
0 0 0 0 0 0 0 0 0 0 0 0 0 0 0 0 0 0 0 0 0 0 0 0 0 0 0 0 0 0 0 0 0 0 0 0 0 0 0 0 0 0 0
0 0 0 0 0 0 0 0 0 0 0 0 0 0 0 0 0 0 0 0 0 0 0 0 0 0 0 0 0 0 0 0 0 0 0 0 0 0 0 0 0 0 0
0 0 0 0 0 0 0 0 0 0 0 0 0 0 0 0 0 0 0 0 0 0 0 0 0 0 0 0 0 0 0 0 0 0 0 0 0 0 0 0 0 0 0
0 0 0 0 0 0 0 0 0 0 0 0 0 0 0 0 0 0 0 0 0 0 0 0 0 0 0 0 0 0 0 0 0 0 0 0 0 0 0 0 0 0 0
0 0 0 0 0 0 0 0 0 0 0 0 0 0 0 0 0 0 0 0 0 0 0 0 0 0 0 0 0 0 0 0 0 0 0 0 0 0 0 0 0 0 0
0 0 0 0 0 0 0 0 0 0 0 0 0 0 0 0 0 0 0 0 0 0 0 0 0 0 0 0 0 0 0 0 0 0 0 0 0 0 0 0 0 0 0
0 0 0 0 0 0 0 0 0 0 0 0 0 0 0 0 0 0 0 0 0 0 0 0 0 0 0 0 0 0 0 0 0 0 0 0 0 0 0 0 0 0 0
0 0 0 0 0 0 0 0 0 0 0 0 0 0 0 0 0 0 0 0 0 0 0 0 0 0 0 0 0 0 0 0 0 0 0 0 0 0 0 0 0 0 0
0 0 0 0 0 0 0 0 0 0 0 0 0 0 0 0 0 0 0 0 0 0 0 0 0 0 0 0 0 0 0 0 0 0 0 0 0 0 0 0 0 0 0
0 0 0 0 0 0 0 0 0 0 0 0 0 0 0 0 0 0 0 0 0 0 0 0 0 0 0 0 0 0 0 0 0 0 0 0 0 0 0 0 0 0 0
0 0 0 0 0 0 0 0 0 0 0 0 0 0 0 0 0 0 0 0 0 0 0 0 0 0 0 0 0 0 0 0 0 0 0 0 0 0 0 0 0 0 0
0 0 0 0 0 0 0 0 0 0 0 0 0 0 0 0 0 0 0 0 0 0 0 0 0 0 0 0 0 0 0 0 0 0 0 0 0 0 0 0 0 0 0
0 0 0 0 0 0 0 0 0 0 0 0 0 0 0 0 0 0 0 0 0 0 0 0 0 0 0 0 0 0 0 0 0 0 0 0 0 0 0 0 0 0 0
0 0 0 0 0 0 0 0 0 0 0 0 0 0 0 0 0 0 0 0 0 0 0 0 0 0 0 0 0 0 0 0 0 0 0 0 0 0 0 0 0 0 0
0 0 0 0 0 0 0 0 0 0 0 0 0 0 0 0 0 0 0 0 0 0 0 0 0 0 0 0 0 0 0 0 0 0 0 0 0 0 0 0 0 0 0
0 0 0 0 0 0 0 0 0 0 0 0 0 0 0 0 0 0 0 0 0 0 0 0 0 0 0 0 0 0 0 0 0 0 0 0 0 0 0 0 0 0 0
-0 0 0 0 0 0 0 0 0 0 0 0 0 0 0 0 0 0 0 0 0 0 0 0 0 0 0 0 0 0 0 0 0 0 0 0 0 0 0 0 0 0 0
0 0 0 0 0 0 0 0 0 0 0 0 0 0 0 0 0 0 0 0 0 0 0 0 0 0 0 0 0 0 0 0 0 0 0 0 0 0 0 0 0 0 0
0 0 0 0 0 0 0 0 0 0 0 0 0 0 0 0 0 0 0 0 0 0 0 0 0 0 0 0 0 0 0 0 0 0 0 0 0 0 0 0 0 0 0
0 0 0 0 0 0 0 0 0 0 0 0 0 0 0 0 0 0 0 0 0 0 0 0 0 0 0 0 0 0 0 0 0 0 0 0 0 0 0 0 0 0 0
0 0 0 0 0 0 0 0 0 0 0 0 0 0 0 0 0 0 0 0 0 0 0 0 0 0 0 0 0 0 0 0 0 0 0 0 0 0 0 0 0 0 0
0 0 0 0 0 0 0 0 0 0 0 0 0 0 0 0 0 0 0 0 0 0 0 0 0 0 0 0 0 0 0 0 0 0 0 0 0 0 0 0 0 0 0
0 0 0 0 0 0 0 0 0 0 0 0 0 0 0 0 0 0 0 0 0 0 0 0 0 0 0 0 0 0 0 0 0 0 0 0 0 0 0 0 0 0 0
0 0 0 0 0 0 0 0 0 0 0 0 0 0 0 0 0 0 0 0 0 0 0 0 0 0 0 0 0 0 0 0 0 0 0 0 0 0 0 0 0 0 0
0 0 0 0 0 0 0 0 0 0 0 0 0 0 0 0 0 0 0 0 0 0 0 0 0 0 0 0 0 0 0 0 0 0 0 0 0 0 0 0 0 0 0
0 0 0 0 0 0 0 0 0 0 0 0 0 0 0 0 0 0 0 0 0 0 0 0 0 0 0 0 0 0 0 0 0 0 0 0 0 0 0 0 0 0 0
Wind_Speed
13 13 14 14 15 15 17 18 17 16 13 12 11 11 10 8 7 7 9 10 9 9 8 6 6 6 6 6 6 5 5 3 3 3 1 1 1 2 2 2 2 3 3
14 14 14 14 15 17 18 19 19 18 16 13 11 9 8 7 7 6 8 10 10 10 8 8 7 7 6 6 6 6 4 3 3 3 2 1 1 2 2 2 2 2 2
15 15 15 15 15 16 18 18 20 19 17 14 10 9 7 7 7 9 9 10 10 10 9 9 8 7 7 6 7 7 7 4 3 3 4 3 3 1 1 3 3 3 3
13 13 14 15 16 16 17 17 18 19 18 16 15 16 14 12 11 10 8 9 11 11 10 10 9 8 7 7 7 7 5 6 4 3 2 2 3 3 1 2 3 4 4
13 13 14 15 16 16 16 16 17 18 18 18 17 17 12 10 8 8 11 11 11 11 11 11 10 9 7 8 8 7 7 5 5 4 3 2 0 1 3 2 2 2 3
13 12 12 13 14 15 15 16 17 17 18 19 18 18 16 13 13 12 13 12 9 9 12 11 11 10 8 8 8 8 9 6 6 4 4 4 3 3 3 3 2 3 3
14 12 11 12 13 16 16 16 18 17 18 19 19 19 17 16 16 14 14 12 10 9 14 12 11 10 9 9 8 8 9 8 7 6 4 4 4 3 3 3 2 2 2
14 14 13 12 13 15 17 18 18 17 18 19 19 18 17 13 11 13 11 13 11 11 12 13 11 11 10 9 8 7 7 7 7 7 6 4 4 3 3 4 3 1 1
13 13 12 12 13 14 16 18 19 16 17 18 18 16 17 14 12 12 11 10 9 10 13 13 12 11 11 10 9 7 8 7 7 7 7 5 4 3 3 3 4 4 3
10 11 10 11 12 13 13 14 16 16 15 16 16 14 15 15 13 11 12 12 12 11 13 13 13 12 11 11 9 7 7 8 7 5 7 5 4 3 3 3 3 3 4
9 9 9 9 10 11 13 13 13 12 13 15 14 13 13 13 12 11 12 12 11 12 13 13 13 12 12 11 10 9 9 9 8 7 7 7 5 4 3 3 3 3 3
7 8 8 8 10 11 12 13 13 12 12 13 13 13 12 12 12 11 12 12 12 12 12 13 12 12 12 11 11 11 10 10 9 8 8 7 5 5 4 4 4 3 3
6 6 7 7 9 10 11 11 12 12 11 11 12 13 12 13 12 12 11 11 11 11 12 12 12 12 11 11 11 10 10 9 9 8 8 7 7 6 4 4 4 3 2
4 5 6 7 7 8 9 10 10 10 10 10 12 13 13 13 12 12 11 11 11 11 11 11 11 11 10 10 10 9 9 8 7 7 7 7 8 7 6 4 4 3 2
2 4 6 6 7 7 8 8 9 10 10 10 11 11 11 11 11 11 11 10 10 10 10 10 10 9 9 8 9 9 9 8 7 6 6 6 6 6 5 4 4 4 3
1 1 3 6 7 8 8 9 9 9 10 11 10 10 11 11 11 11 11 10 10 10 10 10 10 9 7 11 13 10 8 8 8 7 6 5 6 6 6 6 6 5 4
1 1 2 3 6 7 8 9 9 9 10 10 10 11 11 12 11 11 11 11 11 10 10 10 10 9 9 14 14 13 8 7 7 7 6 4 5 6 4 4 4 3 4
3 2 1 2 3 5 7 7 9 9 10 10 10 11 11 12 11 12 12 10 10 10 9 9 10 9 9 14 15 14 8 7 6 6 6 6 5 5 5 4 3 2 1
4 2 1 1 3 6 7 8 8 9 10 10 11 11 12 13 12 12 11 10 10 9 9 9 10 10 10 13 15 13 7 7 6 6 6 6 5 7 7 5 3 2 0
5 3 1 1 3 6 8 9 9 10 10 11 11 11 11 12 13 12 11 9 10 9 9 9 9 10 9 13 14 13 7 7 6 5 5 7 7 7 7 5 4 3 1
5 4 1 2 3 6 8 9 9 9 9 9 10 11 11 11 12 11 10 11 10 10 10 10 8 8 10 12 14 12 7 7 6 5 4 4 8 7 7 6 3 2 3
5 4 1 1 2 5 7 8 8 8 9 10 11 11 11 11 11 12 11 11 12 12 11 10 9 7 8 10 11 13 10 9 7 6 4 5 9 8 7 5 5 5 5
5 4 1 0 2 4 6 8 8 10 11 11 11 12 12 11 11 12 12 11 10 9 9 9 8 7 6 8 13 14 13 13 7 6 10 10 10 9 6 7 7 5 3
4 3 1 1 2 3 4 6 9 11 12 12 12 12 12 11 10 8 9 9 9 9 9 9 9 8 6 6 6 6 8 11 9 7 10 12 10 7 6 5 4 3 2
4 3 2 2 3 3 4 6 9 12 13 12 12 12 11 12 11 9 6 7 6 9 11 9 9 10 8 8 12 9 7 6 7 8 5 4 4 3 3 3 2 2 2
5 3 2 2 3 4 5 7 9 12 14 13 12 10 10 10 11 12 11 14 12 15 15 13 12 9 12 16 16 15 15 15 14 8 5 4 3 3 3 2 2 2 1
Wind_Direction
207 198 193 186 178 174 172 173 173 174 170 172 174 174 176 175 173 174 174 174 173 171 166 163 166 160 160 166 163 150 149 147 133 109 96 300 224 190 179 169 163 167 163
208 200 192 186 180 177 174 174 176 177 178 179 179 176 169 172 173 173 180 181 178 175 173 168 169 164 161 168 168 152 150 160 157 147 142 186 301 280 208 180 180 180 169
208 199 193 189 181 179 177 178 178 179 181 175 168 163 161 165 176 184 187 187 183 180 175 174 170 171 168 174 173 164 158 164 187 180 159 161 202 217 244 218 198 196 193
213 201 193 190 185 181 178 178 178 179 180 175 176 175 179 183 187 182 181 182 186 183 179 178 177 176 175 175 177 170 164 158 175 204 207 178 157 149 206 269 233 214 210
216 208 196 189 186 180 177 178 177 180 180 180 182 182 185 186 174 172 178 184 189 188 184 183 182 181 180 180 179 172 171 168 168 172 173 198 210 177 159 222 249 249 236
214 213 199 186 182 179 176 176 178 181 180 182 184 186 186 182 176 178 183 185 186 188 189 187 187 185 182 182 181 177 175 177 176 174 168 165 172 197 185 198 213 227 237
206 210 201 187 182 178 177 177 179 183 183 184 188 190 190 187 185 182 183 182 183 188 192 189 189 188 184 181 178 177 179 179 180 182 183 183 188 177 172 177 205 220 235
202 204 200 188 180 178 178 179 182 185 185 186 190 191 190 190 190 185 182 185 188 188 187 188 189 189 185 182 178 178 180 182 185 188 184 185 195 184 174 171 166 199 259
200 198 194 185 178 177 179 181 183 186 187 187 188 190 190 190 189 184 181 183 182 180 183 187 189 189 186 183 179 182 182 180 186 189 189 187 188 183 183 173 163 167 205
198 194 191 188 181 178 178 178 183 187 185 185 188 190 190 189 186 181 182 180 179 177 180 184 187 187 185 182 180 178 177 178 184 183 186 190 185 180 177 178 178 172 178
196 192 190 185 176 170 173 175 181 184 184 185 184 184 186 184 182 182 181 177 176 176 179 182 184 185 184 181 180 181 177 182 185 183 187 191 176 171 179 178 181 187 174
193 185 179 176 171 171 174 176 178 182 184 182 179 180 179 178 179 180 178 174 174 175 177 178 181 183 182 181 182 183 182 184 187 185 182 185 174 179 182 182 189 195 190
177 169 167 168 170 169 171 173 175 178 178 174 174 175 176 177 179 178 174 173 172 172 172 174 178 179 179 179 181 181 181 185 185 181 181 181 174 185 184 183 192 195 193
168 168 166 165 165 163 165 169 171 169 167 166 170 175 178 178 176 173 170 170 169 169 170 170 172 174 174 175 175 175 175 176 175 173 175 174 178 186 182 181 184 175 178
162 172 168 163 162 160 160 159 163 163 161 163 168 172 170 168 165 164 164 162 162 163 162 162 164 165 167 171 168 167 166 167 164 161 161 164 167 170 169 167 169 165 168
93 155 170 164 164 159 156 155 156 158 158 162 163 160 160 160 159 158 156 154 154 153 155 159 159 159 162 161 160 159 159 158 159 159 155 152 153 157 163 166 172 171 171
356 169 166 167 161 156 153 155 155 152 156 157 156 156 155 155 154 152 152 154 155 151 152 154 153 154 155 154 154 152 152 152 156 155 152 150 150 151 155 158 158 170 171
338 310 194 170 156 145 142 142 146 150 153 153 154 154 153 152 150 149 152 153 151 151 151 149 149 146 152 151 150 146 141 136 139 143 146 146 146 148 145 140 141 147 154
331 300 243 165 154 146 141 140 146 147 150 154 155 155 154 152 151 151 150 145 142 141 143 144 144 143 147 149 146 142 137 132 132 132 133 138 140 141 138 138 143 133 77
340 334 31 100 141 147 141 144 151 152 157 157 153 151 151 150 150 148 142 136 136 136 134 132 136 139 141 144 143 141 138 136 133 126 127 130 136 141 143 143 144 153 174
332 336 77 146 162 151 146 152 154 161 155 145 141 142 144 143 140 135 134 132 130 128 126 122 121 127 133 139 140 138 136 139 134 128 125 125 129 131 132 123 127 133 109
336 336 354 151 157 153 151 152 157 148 139 137 136 137 137 135 133 131 131 132 132 128 125 121 115 114 121 128 133 130 125 127 127 130 129 126 126 121 117 111 99 90 86
327 323 314 184 159 157 154 154 152 141 137 133 133 131 129 130 133 135 135 134 133 131 131 130 126 122 116 121 124 123 118 116 113 119 122 119 116 109 103 96 92 86 85
314 308 283 192 178 162 152 151 145 140 137 135 133 131 129 127 124 125 131 134 138 136 135 135 132 128 123 124 126 124 116 111 107 107 109 106 103 95 94 93 85 78 84
302 297 257 212 181 151 142 141 143 139 136 134 133 129 125 123 115 103 101 119 126 143 144 143 141 141 140 142 136 131 125 123 120 114 99 94 97 91 86 84 81 76 64
291 287 266 220 168 148 144 144 145 142 139 137 135 131 128 123 119 111 91 73 94 104 109 118 123 119 126 131 128 125 124 124 125 112 113 113 113 112 110 104 84 66 64